Regional Weather Roundup
Issued by NWS

Home | Current Version | Previous Version | Graphics & Text | Print | Product List | Glossary On
Versions: 1 2 3 4 5 6 7 8 9 10 11 12 13 14 15 16 17 18 19 20 21 22 23 24 25 26 27 28 29 30 31 32 33 34 35 36 37 38 39 40 41 42 43 44 45 46 47 48 49 50
000
ASUS44 KMEG 252100
RWRTN
TENNESSEE HOURLY STATE WEATHER ROUNDUP
NATIONAL WEATHER SERVICE MEMPHIS TN
400 PM CDT MON MAY 25 2015

TNZ002-004-019-021-049-052-054-088>092-252200-
WEST TENNESSEE

CITY           SKY/WX    TMP DP  RH WIND       PRES   REMARKS
MEMPHIS INTL   PTSUNNY   83  68  60 S9        30.04F
NWS MEMPHIS      N/A     82 N/A N/A MISG        N/A
JACKSON        CLOUDY    76  68  76 S8        30.07F
DYERSBURG      CLOUDY    79  59  50 SE7       30.06F
PARIS          CLOUDY    72  66  83 S5        30.09F
LEXINGTON      PTSUNNY   73  68  83 S8        30.09S
$$

TNZ008-025-027-028-033-062-065-066-252200-
NORTH MIDDLE TENNESSEE

CITY           SKY/WX    TMP DP  RH WIND       PRES   REMARKS
NASHVILLE      CLOUDY    73  67  81 S8        30.13F
CLARKSVILLE    CLOUDY    71  68  90 SW8       30.10F
COOKEVILLE     CLOUDY    66  66 100 S3        30.18F
CROSSVILLE     LGT RAIN  73  64  73 S7        30.23S
$$

TNZ061-075-076-078-094-096-097-252200-
SOUTH MIDDLE TENNESSEE

CITY           SKY/WX    TMP DP  RH WIND       PRES   REMARKS
FAYETTEVILLE   SUNNY    N/A N/A N/A MISG      30.16S
TULLAHOMA      PTSUNNY   66  64  94 S9        30.17F
WINCHESTER     PTSUNNY   75  66  73 W17G29    30.20R
MCMINNVILLE    SUNNY     72  72 100 SE6       30.17F
COLUMBIA       SUNNY     72  70  94 S7        30.12F
SHELBYVILLE    MOSUNNY   70  70 100 SE3       30.16S
$$

TNZ017-018-042-046-047-252200-
NORTHEAST TENNESSEE

CITY           SKY/WX    TMP DP  RH WIND       PRES   REMARKS
TRI CITIES     MOSUNNY   84  54  35 VRB3      30.21F
ELIZABETHTON   CLEAR     82  55  39 CALM      30.21F
$$

TNZ012-013-036-069-073-074-252200-
CENTRAL EAST TENNESSEE

CITY           SKY/WX    TMP DP  RH WIND       PRES   REMARKS
KNOXVILLE      CLOUDY    84  58  40 SW13      30.17F
OAK RIDGE      PTSUNNY   85  61  44 VRB7      30.18F
GATLINBURG     MOCLDY    84  57  39 NE3       30.17F
$$

TNZ083-085-099-252200-
SOUTHEAST TENNESSEE

CITY           SKY/WX    TMP DP  RH WIND       PRES   REMARKS
CHATTANOOGA    LGT RAIN  79  66  64 SE7       30.18S
$$

SKY/WX REPORTED AS FAIR MEANS FEW OR NO CLOUDS BELOW
12 THOUSAND FEET.




USA.gov is the U.S. government's official web portal to all federal, state and local government web resources and services.